OBJECT D, 64051

Orbit data source: Space-Track

You're viewing an Uncataloged Satellite

Recently launched and/or uncataloged satellites may have evolving metadata. Metadata may include but not limited to: Owner, Maufacturer, Bus, Motor, and Mission.

OBJECT D, 64051 is a Chinese satellite in SSO that was launched on Sat, 17 May 2025 UTC via a ZHUQUE-2E launch vehicle from the Jiuquan Satellite Launch Center, China (JSC). Unknown objects in Earth's orbit typically refer to objects detected orbiting the Earth but have not yet been identified or cataloged. These objects could be anything from previously untracked satellites, spent rocket stages, debris from satellite collisions, or even natural meteoroids temporarily captured by Earth's gravity.

Loading next visibility...
Identifier
64051, 2025-103D
Orbit
SSO
Country
Flag of CNCN / PRC
Related business
Flag of CNZhangye Constellation Space Tech. Co. Ltd. (CN)
Manufacturer
Changsha Tianyi
Mission
Operational Commercial Radar Imaging
Bus & Motor
TY, Unknown motor
Mass
~300 kg wet, ~300 kg dry
Launch date (UTC)
2025-05-17 (1 year ago)
Launch vehicle
ZHUQUE-2E
Launch site
Jiuquan Satellite Launch Center, China (JSC)
Object type
Unknown
Shape & HBR
Box + 2 Pan, 0.5 m
Radar Cross Section
0.255 m², Large (>1 m²)

Expand to show TLE details & history
Last TLE update: 5 hours ago

TLE from 5 hours ago
0 OBJECT D
1 64051U 25103D   26207.61603727  .00004616  00000-0  22175-3 0  9993
2 64051  97.3814 277.8601 0005828 111.1554 249.0304 15.19308738 65987
Epoch: 2026-07-26T14:47Z
TLE epoch observation values (Epoch: 2026-07-26T14:47:05.620Z)
Latitude
-0.00001°
Longitude
111.77527°
Altitude
512.457 km
Speed
7.607 km/s
True Right ascension
18h 31m 26s
True Declination
0° 00' 00"
Sunlit
Object was in full shadow at epoch
Visualization orbit readout
Latitude
Unknown
Longitude
Unknown
Altitude
Unknown
Speed
Unknown
Apparent Right ascension
Unknown
Apparent Declination
Unknown
Sunlit
N/A
Visualization observer readout
Local Sidereal Time
08:42:35
Azimuth
Unknown
Elevation
Unknown
Doppler factor
Unknown
Orbital elements
Apogee altitude
508.906 km
Perigee altitude
500.883 km
Semi-major axis
6,883.031 km
Eccentricity
0.00058
Inclination
97.3814°
RAAN
277.8601°
Arg. of periapsis
111.1554°
True anomaly
248.96806°
Mean anomaly
249.0304°
Eccentric anomaly
248.99923°
Mean motion
3.80079 °/min
Orbital period
94.72 mins
BSTAR
0.00022175
Loading maneuver chart data...
Computing Atmospheric mass density...
Loading historical data...
Loading historical data...
Loading historical data...
Loading historical data...
Loading historical data...
Loading historical data...
Loading historical data...

Documentation

Showing up to 5 results
|